Torna al catalogo

SL-14 DEB

AttivoPO
NORAD 44575·DEBRIS·🇷🇺 Russia

Lanciato Jun 24, 1993 da Plesetsk Cosmodrome

Loading…

Prossimi Passaggi (prossime 24 ore)

TLE

AggiornatoSource: Space-Track

Epoca: Sep 14, 2026, 12:08 UTC

1 44575U 93038H   26257.50596351  .00000014  00000-0  17918-4 0  9999
2 44575  82.5831 293.3780 0046843 122.8541 237.7068 12.54906594446781

Traccia SL-14 DEB in tempo reale con AllMySat

Download on the App Store